Hourly Weather Bolshie Kibya-Kozi

Today, 20 June, Sunday

Time Temperature Precipitation Wind Pressure Humidity
00:00 +19°C° 0 mm 5 mps 754 mmHg 86%
01:00 +19°C° 0 mm 4 mps 754 mmHg 88%
02:00 +18°C° 0 mm 4 mps 755 mmHg 89%
03:00 +18°C° 0 mm 4 mps 755 mmHg 91%
04:00 +19°C° 0 mm 4 mps 755 mmHg 86%
05:00 +20°C° 0 mm 3 mps 755 mmHg 82%
06:00 +22°C° 0 mm 3 mps 755 mmHg 78%
07:00 +24°C° 0 mm 3 mps 755 mmHg 73%
08:00 +26°C° 0 mm 3 mps 755 mmHg 69%
09:00 +27°C° 0 mm 3 mps 755 mmHg 65%
10:00 +28°C° 0 mm 3 mps 756 mmHg 63%
11:00 +28°C° 0 mm 3 mps 756 mmHg 60%
12:00 +29°C° 0 mm 3 mps 756 mmHg 58%
13:00 +29°C° 0.1 mm 3 mps 756 mmHg 59%
14:00 +29°C° 0.1 mm 3 mps 756 mmHg 59%
15:00 +29°C° 0.1 mm 3 mps 756 mmHg 60%
16:00 +28°C° 0 mm 3 mps 756 mmHg 64%
17:00 +27°C° 0 mm 3 mps 756 mmHg 68%
18:00 +26°C° 0 mm 3 mps 756 mmHg 71%
19:00 +25°C° 0 mm 3 mps 756 mmHg 72%
20:00 +22°C° 0 mm 3 mps 756 mmHg 73%
21:00 +21°C° 0 mm 3 mps 756 mmHg 74%
22:00 +20°C° 0.1 mm 3 mps 756 mmHg 73%
23:00 +20°C° 0.1 mm 3 mps 756 mmHg 72%

Tomorrow, 21 June, Monday

Time Temperature Precipitation Wind Pressure Humidity
00:00 +20°C° 0.1 mm 3 mps 757 mmHg 71%
01:00 +19°C° 0.1 mm 3 mps 757 mmHg 72%
02:00 +19°C° 0.1 mm 3 mps 757 mmHg 73%
03:00 +19°C° 0.1 mm 3 mps 757 mmHg 75%
04:00 +19°C° 0.4 mm 2 mps 757 mmHg 78%
05:00 +20°C° 0.4 mm 2 mps 757 mmHg 82%
06:00 +21°C° 0.4 mm 2 mps 757 mmHg 86%
07:00 +23°C° 0 mm 2 mps 757 mmHg 80%
08:00 +25°C° 0 mm 3 mps 757 mmHg 75%
09:00 +27°C° 0 mm 3 mps 757 mmHg 70%
10:00 +28°C° 0.4 mm 3 mps 756 mmHg 65%
11:00 +29°C° 0.4 mm 4 mps 756 mmHg 61%
12:00 +30°C° 0.4 mm 4 mps 756 mmHg 57%
13:00 +30°C° 0.1 mm 4 mps 756 mmHg 55%
14:00 +32°C° 0.1 mm 4 mps 756 mmHg 54%
15:00 +32°C° 0.1 mm 4 mps 756 mmHg 53%
16:00 +30°C° 0 mm 4 mps 755 mmHg 58%
17:00 +29°C° 0 mm 4 mps 755 mmHg 64%
18:00 +28°C° 0 mm 3 mps 755 mmHg 69%
19:00 +27°C° 0 mm 3 mps 755 mmHg 74%
20:00 +25°C° 0 mm 3 mps 755 mmHg 78%
21:00 +24°C° 0 mm 3 mps 755 mmHg 83%
22:00 +22°C° 0 mm 3 mps 755 mmHg 86%
23:00 +22°C° 0 mm 3 mps 755 mmHg 89%

Day after tomorrow, 22 June, Tuesday

Time Temperature Precipitation Wind Pressure Humidity
00:00 +21°C° 0 mm 3 mps 755 mmHg 91%
01:00 +21°C° 0 mm 3 mps 756 mmHg 92%
02:00 +21°C° 0 mm 3 mps 756 mmHg 92%
03:00 +21°C° 0 mm 3 mps 756 mmHg 92%
04:00 +22°C° 0 mm 3 mps 756 mmHg 88%
05:00 +24°C° 0 mm 3 mps 756 mmHg 83%
06:00 +25°C° 0 mm 3 mps 756 mmHg 78%
07:00 +26°C° 0 mm 3 mps 756 mmHg 72%
08:00 +28°C° 0 mm 3 mps 756 mmHg 67%
09:00 +29°C° 0 mm 4 mps 756 mmHg 61%
10:00 +30°C° 0 mm 4 mps 756 mmHg 58%
11:00 +32°C° 0 mm 4 mps 756 mmHg 54%
12:00 +33°C° 0 mm 4 mps 756 mmHg 51%
13:00 +33°C° 0 mm 3 mps 756 mmHg 50%
14:00 +33°C° 0 mm 3 mps 756 mmHg 49%
15:00 +33°C° 0 mm 3 mps 756 mmHg 48%
16:00 +31°C° 0 mm 3 mps 756 mmHg 55%
17:00 +30°C° 0 mm 3 mps 755 mmHg 63%
18:00 +29°C° 0 mm 3 mps 755 mmHg 70%
19:00 +27°C° 0.1 mm 2 mps 755 mmHg 73%
20:00 +26°C° 0.1 mm 2 mps 755 mmHg 77%
21:00 +24°C° 0.1 mm 2 mps 756 mmHg 80%
22:00 +24°C° 0 mm 2 mps 755 mmHg 82%
23:00 +23°C° 0 mm 2 mps 755 mmHg 84%

23 June, Wednesday

Time Temperature Precipitation Wind Pressure Humidity
00:00 +23°C° 0 mm 2 mps 755 mmHg 85%
01:00 +21°C° 0 mm 2 mps 755 mmHg 86%
02:00 +21°C° 0 mm 2 mps 755 mmHg 86%
03:00 +21°C° 0 mm 3 mps 756 mmHg 87%
04:00 +22°C° 0 mm 3 mps 756 mmHg 83%
05:00 +24°C° 0 mm 3 mps 756 mmHg 80%
06:00 +25°C° 0 mm 3 mps 756 mmHg 77%
07:00 +26°C° 0 mm 3 mps 756 mmHg 71%
08:00 +28°C° 0 mm 3 mps 756 mmHg 66%
09:00 +29°C° 0 mm 4 mps 756 mmHg 61%
10:00 +30°C° 0 mm 4 mps 756 mmHg 57%
11:00 +31°C° 0 mm 3 mps 756 mmHg 53%
12:00 +33°C° 0 mm 3 mps 756 mmHg 50%
13:00 +33°C° 0 mm 3 mps 756 mmHg 48%
14:00 +33°C° 0 mm 3 mps 755 mmHg 46%
15:00 +33°C° 0 mm 3 mps 755 mmHg 43%
16:00 +33°C° 0 mm 3 mps 755 mmHg 50%
17:00 +31°C° 0 mm 2 mps 755 mmHg 56%
18:00 +30°C° 0 mm 2 mps 754 mmHg 63%
19:00 +28°C° 0.1 mm 2 mps 754 mmHg 68%
20:00 +27°C° 0.1 mm 2 mps 755 mmHg 73%
21:00 +25°C° 0.1 mm 2 mps 755 mmHg 77%
22:00 +24°C° 0 mm 2 mps 754 mmHg 79%
23:00 +24°C° 0 mm 3 mps 754 mmHg 80%

24 June, Thursday

Time Temperature Precipitation Wind Pressure Humidity
00:00 +22°C° 0 mm 3 mps 754 mmHg 81%
01:00 +23°C° 0.1 mm 2 mps 754 mmHg 82%
02:00 +23°C° 0.1 mm 2 mps 754 mmHg 84%
03:00 +21°C° 0.1 mm 2 mps 754 mmHg 85%
04:00 +23°C° 0 mm 2 mps 754 mmHg 83%
05:00 +24°C° 0 mm 2 mps 754 mmHg 81%
06:00 +25°C° 0 mm 2 mps 754 mmHg 79%
07:00 +27°C° 0 mm 2 mps 754 mmHg 72%
08:00 +28°C° 0 mm 3 mps 754 mmHg 66%
09:00 +30°C° 0 mm 3 mps 754 mmHg 59%
10:00 +31°C° 0 mm 3 mps 754 mmHg 56%
11:00 +33°C° 0 mm 4 mps 753 mmHg 53%
12:00 +34°C° 0 mm 4 mps 753 mmHg 51%
13:00 +34°C° 0 mm 4 mps 753 mmHg 49%
14:00 +34°C° 0 mm 4 mps 753 mmHg 47%
15:00 +35°C° 0 mm 4 mps 753 mmHg 46%
16:00 +34°C° 0 mm 3 mps 752 mmHg 52%
17:00 +33°C° 0 mm 3 mps 752 mmHg 58%
18:00 +31°C° 0 mm 3 mps 752 mmHg 64%
19:00 +29°C° 0 mm 3 mps 751 mmHg 67%
20:00 +28°C° 0 mm 3 mps 751 mmHg 70%
21:00 +26°C° 0 mm 3 mps 751 mmHg 73%
22:00 +26°C° 0 mm 3 mps 751 mmHg 77%
23:00 +25°C° 0 mm 3 mps 751 mmHg 80%

25 June, Friday

Time Temperature Precipitation Wind Pressure Humidity
00:00 +25°C° 0 mm 3 mps 751 mmHg 84%
01:00 +24°C° 0 mm 3 mps 751 mmHg 82%
02:00 +24°C° 0 mm 3 mps 751 mmHg 80%
03:00 +24°C° 0 mm 3 mps 751 mmHg 78%
04:00 +24°C° 0 mm 3 mps 751 mmHg 77%
05:00 +25°C° 0 mm 3 mps 751 mmHg 77%
06:00 +25°C° 0 mm 3 mps 751 mmHg 77%
07:00 +27°C° 0 mm 3 mps 751 mmHg 71%
08:00 +28°C° 0 mm 3 mps 750 mmHg 65%
09:00 +30°C° 0 mm 4 mps 750 mmHg 59%
10:00 +32°C° 0 mm 4 mps 750 mmHg 56%
11:00 +33°C° 0 mm 4 mps 750 mmHg 53%
12:00 +34°C° 0 mm 4 mps 750 mmHg 49%
13:00 +34°C° 0 mm 4 mps 750 mmHg 50%
14:00 +34°C° 0 mm 4 mps 750 mmHg 51%
15:00 +34°C° 0 mm 4 mps 750 mmHg 52%
16:00 +33°C° 0.1 mm 4 mps 750 mmHg 58%
17:00 +32°C° 0.1 mm 4 mps 750 mmHg 63%
18:00 +30°C° 0.1 mm 3 mps 750 mmHg 68%
19:00 +28°C° 0.7 mm 3 mps 750 mmHg 74%
20:00 +26°C° 0.7 mm 2 mps 750 mmHg 81%
21:00 +24°C° 0.7 mm 1 mps 749 mmHg 87%
22:00 +23°C° 0.5 mm 1 mps 749 mmHg 88%
23:00 +23°C° 0.5 mm 2 mps 749 mmHg 88%
Show more